Houston, TX

8:41 AM CDT on July 24, 2016 (GMT -0500)
Houston / Dunn Helistop

Weather History for KMCJ - January, 2013

Change the Weather History Date:

Thursday, January 10, 2013

  Actual Average (KHOU) Record (KHOU)
Temperature  
Mean Temperature 63 °F 53 °F  
Max Temperature 71 °F 63 °F 82 °F (1963)
Min Temperature 55 °F 43 °F 18 °F (1977)
Degree Days  
Heating Degree Days 2 13  
Month to date heating degree days 130  
Since 1 July heating degree days 669  
Growing Degree Days 13 (Base 50)    
Moisture  
Dew Point 52 °F    
Average Humidity 72    
Maximum Humidity 100    
Minimum Humidity 38    
Precipitation  
Precipitation 0.07 in 0.11 in 1.43 in (2001)
Month to date precipitation 1.05  
Year to date precipitation 1.05  
Sea Level Pressure  
Sea Level Pressure 30.00 in    
Wind  
Wind Speed 5 mph (WSW)    
Max Wind Speed 12 mph    
Max Gust Speed 20 mph    
Visibility 8 miles    
Events      
T = Trace of Precipitation, MM = Missing Value Source: NWS Daily Summary

Daily Weather History Graph

Daily Weather History Graph

Search for Another Location

Airport or City:

Trip Planner

Search our weather history database for the weather conditions in past years. The results will help you decide how hot, cold, wet, or windy it might be!

Date:

Astronomy

Jan. 10, 2013 Rise Set
Actual Time 7:17 AM CST 5:40 PM CST
Civil Twilight 6:52 AM CST 6:06 PM CST
Nautical Twilight 6:22 AM CST 6:36 PM CST
Astronomical Twilight 5:53 AM CST 7:05 PM CST
Moon 5:59 AM CST (1/10) 4:48 PM CST (1/10)
Length of Visible Light 11h 14m
Length of Day
10h 22m
Waning Crescent, 2% of the Moon is Illuminated
Jan 10
Waning Crescent
Jan 11
New
Jan 18
First Quarter
Jan 26
Full
Feb 3
Last Quarter

Hourly Weather History & Observations

Time (CST) Temp. Dew Point Humidity Pressure Visibility Wind Dir Wind Speed Gust Speed Precip Events Conditions
12:15 AM 62.6 °F 62.6 °F 100% 30.00 in 6.0 mi Calm Calm - N/A   Mostly Cloudy
2:15 AM 60.8 °F 60.8 °F 100% 29.98 in 4.0 mi Calm Calm - N/A   Overcast
2:35 AM 60.8 °F 60.8 °F 100% 30.04 in 5.0 mi SW 6.9 mph - 0.01 in   Scattered Clouds
2:55 AM 60.8 °F 60.8 °F 100% 30.02 in 2.5 mi South 11.5 mph 16.1 mph 0.02 in   Mostly Cloudy
3:15 AM 60.8 °F 60.8 °F 100% 30.02 in 4.0 mi WSW 11.5 mph - 0.02 in   Overcast
3:55 AM 60.8 °F 59.0 °F 94% 30.01 in 8.0 mi WSW 6.9 mph - 0.04 in   Scattered Clouds
4:15 AM 60.8 °F 59.0 °F 94% 29.98 in 3.0 mi WSW 3.5 mph - N/A   Mostly Cloudy
4:35 AM 59.0 °F 59.0 °F 100% 29.96 in 6.0 mi Calm Calm - 0.01 in   Mostly Cloudy
4:55 AM 59.0 °F 59.0 °F 100% 29.96 in 7.0 mi Calm Calm - 0.01 in   Partly Cloudy
5:15 AM 59.0 °F 59.0 °F 100% 29.98 in 5.0 mi WSW 5.8 mph - N/A   Partly Cloudy
5:35 AM 59.0 °F 59.0 °F 100% 29.95 in 1.8 mi WNW 9.2 mph - N/A   Mostly Cloudy
5:55 AM 59.0 °F 59.0 °F 100% 29.95 in 2.0 mi WNW 10.4 mph - N/A   Overcast
6:15 AM 59.0 °F 59.0 °F 100% 29.95 in 2.5 mi WNW 10.4 mph 19.6 mph N/A   Overcast
6:55 AM 59.0 °F 59.0 °F 100% 29.96 in 4.0 mi West 8.1 mph - N/A   Scattered Clouds
7:15 AM 59.0 °F 57.2 °F 94% 29.97 in 5.0 mi WNW 5.8 mph - N/A   Clear
7:35 AM 57.2 °F 57.2 °F 100% 29.96 in 3.0 mi WNW 6.9 mph - N/A   Partly Cloudy
7:55 AM 57.2 °F 57.2 °F 100% 29.97 in 3.0 mi WNW 5.8 mph - N/A   Mostly Cloudy
8:15 AM 57.2 °F 55.4 °F 94% 29.99 in 5.0 mi WNW 8.1 mph - N/A   Partly Cloudy
8:35 AM 57.2 °F 55.4 °F 94% 30.01 in 5.0 mi Calm Calm - N/A   Partly Cloudy
8:55 AM 57.2 °F 55.4 °F 94% 30.03 in 8.0 mi Calm Calm - N/A   Clear
9:15 AM 57.2 °F 55.4 °F 94% 30.05 in 7.0 mi Calm Calm - N/A   Clear
9:35 AM 59.0 °F 55.4 °F 88% 30.06 in 10.0 mi WNW 5.8 mph - N/A   Clear
9:55 AM 59.0 °F 53.6 °F 82% 30.06 in 10.0 mi WNW 5.8 mph - N/A   Clear
10:15 AM 60.8 °F 53.6 °F 77% 30.06 in 10.0 mi WNW 4.6 mph - N/A   Clear
10:35 AM 62.6 °F 51.8 °F 68% 30.06 in 10.0 mi WNW 6.9 mph - N/A   Clear
10:55 AM 64.4 °F 50.0 °F 59% 30.07 in 10.0 mi WNW 9.2 mph - N/A   Clear
11:15 AM 64.4 °F 48.2 °F 56% 30.06 in 10.0 mi WNW 11.5 mph - N/A   Clear
11:35 AM 64.4 °F 48.2 °F 56% 30.05 in 10.0 mi West 10.4 mph - N/A   Clear
11:55 AM 64.4 °F 48.2 °F 56% 30.04 in 10.0 mi WNW 9.2 mph - N/A   Clear
12:15 PM 66.2 °F 50.0 °F 56% 30.03 in 10.0 mi WSW 9.2 mph - N/A   Clear
12:35 PM 68.0 °F 50.0 °F 52% 30.03 in 10.0 mi Calm Calm - N/A   Clear
12:55 PM 68.0 °F 48.2 °F 49% 30.01 in 10.0 mi WSW 3.5 mph - N/A   Clear
1:15 PM 69.8 °F 48.2 °F 46% 30.00 in 10.0 mi WSW 6.9 mph - N/A   Clear
1:35 PM 71.6 °F 46.4 °F 41% 29.99 in 10.0 mi WSW 3.5 mph - N/A   Clear
1:55 PM 71.6 °F 46.4 °F 41% 29.99 in 10.0 mi SW 5.8 mph - N/A   Clear
2:35 PM 69.8 °F 44.6 °F 40% 29.97 in 10.0 mi SW 6.9 mph 17.3 mph N/A   Clear
2:55 PM 69.8 °F 44.6 °F 40% 29.96 in 10.0 mi WSW 5.8 mph 16.1 mph N/A   Clear
3:15 PM 69.8 °F 42.8 °F 38% 29.97 in 10.0 mi WSW 6.9 mph 18.4 mph N/A   Clear
3:35 PM 69.8 °F 44.6 °F 40% 29.97 in 10.0 mi WSW 4.6 mph - N/A   Clear
3:55 PM 69.8 °F 46.4 °F 43% 29.97 in 10.0 mi West 6.9 mph - N/A   Clear
4:15 PM 68.0 °F 46.4 °F 46% 29.98 in 10.0 mi Calm Calm - N/A   Clear
4:35 PM 68.0 °F 44.6 °F 43% 29.98 in 10.0 mi SW 8.1 mph - N/A   Clear
4:55 PM 68.0 °F 44.6 °F 43% 29.97 in 10.0 mi WSW 5.8 mph 16.1 mph N/A   Clear
5:15 PM 66.2 °F 44.6 °F 46% 29.97 in 10.0 mi WSW 10.4 mph - N/A   Clear
5:35 PM 64.4 °F 44.6 °F 49% 29.98 in 10.0 mi West 5.8 mph - N/A   Clear
5:55 PM 62.6 °F 44.6 °F 52% 29.98 in 10.0 mi WNW 6.9 mph - N/A   Clear
6:15 PM 62.6 °F 44.6 °F 52% 29.98 in 10.0 mi WNW 5.8 mph - N/A   Clear
6:35 PM 62.6 °F 44.6 °F 52% 29.99 in 10.0 mi Calm Calm - N/A   Clear
6:55 PM 62.6 °F 46.4 °F 55% 29.99 in 10.0 mi Calm Calm - N/A   Clear
7:15 PM 62.6 °F 48.2 °F 59% 29.99 in 10.0 mi South 8.1 mph - N/A   Clear
7:35 PM 59.0 °F 53.6 °F 82% 29.99 in 10.0 mi South 10.4 mph - N/A   Clear
7:55 PM 59.0 °F 53.6 °F 82% 29.99 in 10.0 mi South 6.9 mph - N/A   Clear
8:15 PM 59.0 °F 53.6 °F 82% 30.00 in 10.0 mi South 3.5 mph - N/A   Clear
8:35 PM 59.0 °F 50.0 °F 72% 30.00 in 10.0 mi SW 8.1 mph - N/A   Clear
8:55 PM 59.0 °F 51.8 °F 77% 30.00 in 10.0 mi SSW 3.5 mph - N/A   Clear
9:15 PM 57.2 °F 50.0 °F 77% 30.01 in 10.0 mi SW 8.1 mph - N/A   Clear
9:35 PM 59.0 °F 48.2 °F 67% 30.01 in 10.0 mi SW 6.9 mph - N/A   Clear
9:55 PM 59.0 °F 46.4 °F 63% 30.01 in 10.0 mi WSW 6.9 mph - N/A   Clear
10:15 PM 59.0 °F 48.2 °F 67% 30.01 in 10.0 mi SW 4.6 mph - N/A   Clear
10:35 PM 59.0 °F 48.2 °F 67% 30.01 in 10.0 mi SW 5.8 mph - N/A   Clear
11:35 PM 55.4 °F 48.2 °F 77% 30.02 in 10.0 mi WSW 8.1 mph - N/A   Clear
11:55 PM 57.2 °F 48.2 °F 72% 30.02 in 10.0 mi SW 8.1 mph - N/A   Clear